RH
6 7 7 6 5 5 6 4 4 6 7 6 6 7 7 8 8 7 7 8 33 42 62 81 43 10 8 30 38 20 35 52 85 71 41 81 77 94 94 85 94 89 90 90 93 95 95 91 94
11 7 6 7 7 6 5 4 7 9 8 10 10 11 11 10 11 12 12 10 7 9 7 24 58 14 7 7 10 26 14 29 58 86 47 29 34 74 93 86 82 77 89 92 95 95 94 97 95
9 12 12 9 6 6 5 5 7 7 8 9 10 11 10 13 12 12 14 14 15 14 13 12 10 27 12 12 9 7 7 8 37 42 62 70 40 42 56 64 61 47 62 58 56 76 92 95 96
10 10 9 10 12 11 8 9 8 7 7 8 8 9 10 10 11 12 15 14 13 14 13 15 16 17 18 19 18 17 15 14 10 11 11 10 15 11 43 56 43 44 38 48 40 42 49 64 54
12 12 10 10 11 8 9 10 9 9 10 10 8 8 9 10 12 12 14 16 18 17 18 18 19 21 21 20 20 20 20 19 18 15 12 15 19 17 14 12 22 13 16 28 30 37 36 38 41
11 12 11 12 12 10 11 9 10 9 10 10 11 12 10 11 12 14 16 15 17 19 18 18 16 14 12 12 10 9 10 11 13 15 16 16 16 21 18 22 21 20 13 8 6 14 32 31 32
10 10 11 13 12 11 11 11 11 10 12 13 13 12 12 13 12 12 12 15 15 14 14 14 13 12 11 10 11 11 11 9 8 9 9 9 8 8 10 11 14 21 21 19 19 16 10 7 9
12 11 11 13 15 11 13 14 12 11 13 13 12 12 13 13 11 11 12 11 11 12 13 14 14 16 16 15 13 12 11 10 10 9 9 9 9 8 8 8 7 7 7 8 11 14 19 17 16
15 14 14 14 14 16 15 14 14 13 14 14 12 12 12 10 10 10 11 11 12 12 11 10 10 10 11 12 12 13 13 13 13 12 12 11 11 10 9 8 8 8 7 7 8 8 7 6 9
15 15 16 16 15 15 14 14 14 15 14 16 15 13 12 10 10 11 11 10 10 10 11 13 14 15 17 18 19 18 18 18 18 16 16 16 16 14 14 13 13 12 12 10 8 8 8 8 8
15 15 15 16 17 16 15 15 15 16 17 18 17 16 14 12 12 13 14 15 15 16 18 19 20 19 19 20 21 19 18 18 18 18 17 16 14 12 12 12 14 14 15 13 12 11 10 10 10
19 18 18 19 21 19 18 18 19 19 21 24 24 23 21 19 18 18 18 18 18 19 20 22 22 23 24 23 21 19 19 20 20 20 20 19 18 18 17 16 14 14 13 12 11 11 10 10 10
22 21 21 22 22 22 22 22 22 24 26 31 31 29 27 26 26 26 26 25 24 25 27 27 28 28 27 25 24 24 25 26 24 23 24 24 25 26 25 24 22 21 19 17 16 16 14 12 12
27 24 24 25 26 27 27 28 29 32 32 34 37 37 35 34 33 33 34 33 32 33 33 32 32 30 30 30 31 31 31 30 29 29 30 28 29 30 30 28 27 25 24 24 21 20 19 18 16
31 30 32 34 33 33 32 32 35 37 39 41 41 39 37 38 39 36 34 34 34 33 31 30 30 29 28 28 27 26 26 27 27 27 28 29 30 29 26 23 20 20 20 19 20 22 20 17 15
37 35 35 40 40 38 38 33 40 44 44 42 41 43 43 40 39 40 40 40 41 39 36 34 31 30 31 32 34 35 31 31 32 33 34 32 30 29 27 24 23 25 25 23 21 19 17 16 17
42 36 42 43 47 46 44 38 47 52 48 44 40 40 44 46 43 44 44 50 56 55 52 50 48 46 45 45 44 39 38 38 37 34 33 33 34 32 32 31 27 26 27 26 25 23 21 20 19
45 47 51 53 51 52 49 47 50 53 49 42 41 47 48 48 48 48 55 60 53 48 47 47 47 52 54 51 48 47 44 37 35 35 36 32 29 28 28 28 28 26 25 24 23 22 21 20 19
59 57 54 63 63 56 50 44 52 52 44 49 50 48 44 52 55 54 59 60 59 55 49 54 55 48 48 55 54 47 40 40 40 37 34 34 34 33 30 26 23 21 20 19 19 20 19 19 18
59 55 63 78 78 72 62 45 48 52 47 56 66 65 61 59 62 61 61 63 69 70 71 73 72 60 55 52 48 47 44 44 43 39 36 36 37 32 29 27 26 28 27 25 21 17 16 16 16
94 86 88 73 62 57 56 42 55 58 63 75 82 89 93 88 88 85 72 74 83 84 80 77 77 73 66 59 53 50 51 52 51 48 47 44 39 37 34 31 30 30 27 24 21 17 17 21 23
86 93 87 87 89 82 73 36 41 58 76 80 88 96 96 93 91 88 95 95 95 89 86 82 76 73 68 64 59 56 56 57 56 57 57 53 48 44 41 36 32 30 26 20 18 22 25 26 22
81 80 85 84 77 66 55 85 26 44 73 75 77 76 73 78 79 87 87 80 79 77 80 75 71 69 68 65 64 66 64 64 65 61 59 56 53 46 41 36 32 27 21 22 25 25 22 19 17
59 91 91 89 84 58 78 91 27 54 64 75 80 81 79 76 73 74 80 80 82 82 86 80 76 71 70 71 71 72 69 65 62 59 59 55 52 47 43 41 36 31 32 31 27 23 18 15 12
68 100 99 87 87 73 73 64 32 39 40 48 65 68 68 73 68 58 64 74 75 80 83 90 87 84 81 83 77 73 70 67 69 69 62 58 54 50 47 43 40 39 36 29 23 17 14 11 9
60 91 100 94 78 67 68 39 32 31 29 24 23 23 26 28 35 49 68 79 75 74 80 83 91 92 92 94 91 86 80 74 68 64 63 62 60 56 54 49 47 40 31 23 17 12 10 7 6
86 99 100 100 90 76 54 45 45 51 52 56 61 54 43 46 58 71 92 100 94 94 96 94 95 87 81 79 89 100 97 92 83 80 78 72 67 64 60 56 46 34 22 16 12 8 6 6 4
100 100 98 100 98 90 65 58 57 62 72 90 95 84 68 53 46 54 68 83 88 90 89 83 73 62 53 74 97 100 100 100 98 95 91 83 75 69 63 49 34 21 14 10 7 6 5 4 4
100 100 100 100 100 100 84 62 63 82 91 98 97 92 88 81 70 68 78 85 83 76 75 78 80 73 62 93 96 94 97 98 100 100 97 88 78 64 51 34 19 13 9 7 5 5 4 5 12
100 100 100 100 100 99 98 52 73 91 100 100 93 96 98 100 99 96 96 100 95 94 93 93 96 92 100 100 100 100 100 99 100 98 99 80 68 46 30 19 13 8 7 4 4 5 10 17 15
Wind_Speed
16 16 16 15 16 14 15 14 11 12 11 10 12 15 17 16 8 10 10 6 13 13 2 2 1 5 7 10 6 5 6 2 6 8 3 5 9 3 15 30 28 21 21 24 28 26 25 27 27
14 17 18 18 19 17 20 12 12 14 16 13 14 16 17 16 14 9 9 6 6 8 5 3 5 8 6 8 11 10 9 6 4 4 1 9 8 9 4 3 1 1 16 32 34 30 26 22 22
12 16 18 20 21 21 21 15 15 20 17 19 18 19 18 18 18 14 12 11 9 8 7 8 12 9 8 9 9 9 9 10 10 10 6 6 9 11 11 11 7 7 4 5 5 9 26 22 18
13 13 15 17 21 22 20 19 20 22 21 22 23 22 20 21 20 16 14 15 14 12 11 12 12 12 12 13 12 12 13 13 13 14 13 13 12 15 12 13 12 11 9 9 10 9 9 11 12
16 16 16 15 19 18 16 18 20 19 18 22 21 22 21 22 21 20 18 18 17 16 15 15 15 14 15 14 14 14 15 15 16 17 17 15 16 17 18 16 15 17 17 17 17 16 15 16 15
21 21 19 18 24 20 18 20 21 19 19 20 19 21 21 22 23 23 21 21 20 19 19 20 20 20 19 19 18 17 19 18 18 19 19 20 20 20 22 21 20 20 21 20 21 21 22 21 19
25 25 21 23 26 23 20 23 25 21 20 23 24 24 22 25 27 27 26 25 24 24 24 23 23 23 23 22 22 23 23 21 21 22 23 24 23 25 26 25 25 25 24 24 25 24 25 25 25
27 27 24 25 27 27 19 23 30 23 23 26 25 23 24 29 27 27 28 28 28 28 27 26 26 26 25 25 26 25 25 24 24 25 25 25 28 28 27 26 28 25 26 27 30 30 29 29 29
29 28 24 26 28 29 26 26 30 28 26 27 28 26 27 29 27 27 28 29 30 29 29 29 29 29 29 28 28 28 28 28 27 28 28 29 29 29 29 30 29 28 31 31 31 31 31 33 34
30 27 26 28 30 30 30 30 31 30 30 27 29 29 30 31 30 29 29 30 30 30 30 31 31 32 33 33 33 33 33 33 33 34 33 34 33 34 34 34 34 33 34 35 37 38 35 37 37
31 30 30 28 32 32 32 32 33 34 32 29 31 30 31 32 33 33 31 32 32 33 35 35 36 36 38 39 38 38 37 37 37 38 38 37 37 39 39 39 39 39 39 38 39 40 40 42 42
32 32 33 30 34 35 34 34 35 36 34 32 35 35 34 34 34 34 35 36 37 38 37 39 39 40 41 40 41 41 41 41 41 40 40 40 40 39 40 41 42 42 42 43 44 44 44 45 46
35 31 34 35 35 37 37 37 38 35 35 34 36 38 38 36 36 36 37 38 39 40 41 41 41 42 42 42 42 43 44 44 44 43 43 43 43 43 43 42 42 44 45 46 47 47 49 49 50
35 36 35 36 37 40 41 41 40 35 38 37 38 39 40 39 37 36 36 38 38 40 42 43 44 43 42 42 44 45 46 46 46 46 46 47 47 46 45 45 45 46 47 48 48 49 51 52 52
36 37 38 37 40 43 44 44 37 41 38 39 40 41 40 39 39 39 39 38 39 41 43 43 43 43 43 43 44 45 45 46 46 47 47 48 48 48 48 48 47 47 47 47 49 51 52 52 53
37 39 41 40 41 43 44 43 41 41 42 41 41 43 44 43 42 40 41 40 41 41 41 41 42 43 44 45 46 47 47 47 48 48 48 48 47 48 48 48 49 50 50 50 50 50 49 50 51
38 41 43 45 44 45 46 45 42 43 45 43 42 42 43 43 43 42 42 40 40 40 41 44 46 48 49 50 50 50 49 49 49 49 49 48 49 49 49 50 50 49 50 51 52 53 54 55 56
42 44 45 47 49 48 49 45 46 46 47 45 41 39 40 41 42 43 43 41 42 44 44 46 47 49 50 51 51 51 50 51 50 50 51 51 51 51 52 52 53 55 56 57 57 58 59 61 61
44 44 45 44 47 51 50 49 47 49 47 40 39 38 40 41 42 43 44 46 48 49 51 50 50 51 52 52 51 52 52 52 52 53 55 55 56 57 58 58 59 59 59 59 59 60 62 65 67
46 46 46 50 52 55 55 54 55 51 48 46 43 39 38 41 44 47 48 49 50 53 54 54 51 50 51 52 52 54 55 56 56 57 58 60 60 61 61 61 61 60 61 63 64 64 66 69 71
49 49 46 49 51 54 57 55 51 50 47 46 46 45 48 49 46 48 49 52 54 53 49 49 50 52 55 56 55 56 56 57 58 59 60 61 62 63 65 64 64 64 65 65 67 70 73 74 77
49 51 54 55 56 57 55 58 53 51 50 47 44 42 41 41 41 38 38 44 47 48 48 52 53 55 56 56 56 57 58 59 61 61 62 63 65 66 66 66 66 66 67 69 72 73 75 77 77
51 52 52 53 55 58 57 57 55 58 47 42 42 43 43 42 41 41 41 43 45 46 46 49 50 53 55 56 57 58 60 61 61 62 63 64 64 65 67 68 68 69 71 73 73 74 74 76 77
50 51 51 51 51 55 52 53 54 53 47 43 39 38 38 38 38 41 43 45 46 46 48 51 51 52 54 56 58 60 62 62 63 64 64 65 66 68 68 67 68 70 71 73 74 75 75 77 79
48 46 47 52 51 53 53 56 51 48 48 49 48 45 43 42 45 47 47 47 48 47 50 52 54 55 56 58 60 61 62 63 63 65 66 67 68 67 68 68 69 71 73 74 75 76 78 80 85
48 48 49 54 55 56 56 57 50 50 49 47 45 44 43 45 46 47 48 49 50 52 53 54 56 60 61 62 63 63 63 63 65 67 67 68 67 67 68 70 71 73 75 76 78 79 81 85 90
49 49 50 55 56 58 57 54 47 48 49 46 44 38 41 43 43 43 43 43 45 48 48 50 54 57 58 60 63 65 66 67 67 67 66 66 67 68 70 72 74 75 76 78 80 80 83 88 93
51 52 55 57 57 58 54 52 49 51 47 42 42 45 47 50 51 52 51 51 53 53 55 57 60 62 63 62 63 65 65 66 66 66 66 67 68 69 71 73 74 77 77 78 79 81 85 89 87
56 55 49 50 54 57 60 55 52 47 45 45 48 50 52 54 54 55 55 55 58 59 61 64 64 63 63 63 64 65 66 66 65 64 64 66 67 69 70 72 75 76 77 77 80 82 79 70 56
52 48 49 48 39 37 44 61 51 50 50 56 58 57 57 57 57 57 57 58 58 60 63 65 63 62 61 59 63 66 66 65 66 64 63 64 65 67 70 72 74 76 77 77 74 66 55 48 49
Wind_Direction
250 253 253 256 259 262 261 258 261 275 271 267 276 283 290 297 308 298 290 268 274 256 294 125 239 262 237 232 226 204 211 303 295 114 355 211 203 208 229 239 241 248 244 244 249 241 237 237 242
258 256 256 256 261 260 262 269 271 263 269 268 267 273 279 288 296 285 285 279 265 265 249 173 289 286 223 235 224 218 195 226 209 261 251 286 301 273 266 156 340 294 253 250 256 249 246 255 255
282 268 264 263 265 264 263 266 251 255 262 264 264 267 274 282 279 280 275 278 263 255 251 219 221 230 242 240 220 218 231 218 224 225 268 253 266 284 299 311 316 328 296 302 310 272 249 249 248
280 278 278 267 264 265 268 263 256 255 259 265 266 267 266 267 273 276 267 261 264 260 256 255 253 246 254 247 241 237 229 225 222 232 240 231 239 251 262 278 278 277 268 275 266 275 279 266 270
268 275 280 279 271 275 274 268 268 267 267 266 267 270 270 268 268 267 265 260 250 249 252 254 254 253 251 251 252 249 248 240 240 236 239 244 236 240 248 248 250 258 253 251 250 246 249 257 265
269 276 279 273 272 285 279 279 274 278 277 277 276 270 270 272 271 267 262 263 262 260 253 250 250 250 254 254 252 252 251 251 248 248 248 252 254 252 247 245 246 243 251 256 259 254 250 248 251
270 274 276 273 277 279 280 282 277 282 281 280 279 278 279 273 266 268 271 269 267 263 262 260 259 255 253 255 258 258 257 254 256 256 253 251 252 252 255 257 256 253 254 253 251 255 259 257 257
273 274 274 275 277 281 285 273 279 283 280 280 280 283 275 270 274 274 273 272 272 273 272 271 268 266 262 255 253 252 252 253 250 249 248 249 250 250 252 254 255 260 260 260 264 260 258 258 256
275 276 276 273 278 279 273 269 276 282 280 278 280 278 273 277 280 277 275 272 271 269 269 271 272 273 275 274 273 271 268 266 264 264 261 257 257 257 255 253 251 251 258 262 263 264 264 264 262
273 273 269 267 270 272 271 271 274 274 276 277 274 272 273 275 277 277 278 278 274 272 272 274 274 272 273 274 274 274 274 273 272 269 267 266 265 263 261 259 257 255 251 251 256 260 261 263 264
278 274 268 266 270 270 271 271 273 276 275 274 271 269 267 269 270 272 274 273 273 274 276 276 276 275 275 276 276 274 274 273 271 270 268 268 267 267 265 264 262 259 258 257 254 253 255 260 261
276 276 274 271 270 271 270 269 269 272 277 276 274 271 268 266 268 269 270 271 271 271 271 273 273 274 274 272 270 270 271 272 273 274 274 272 268 265 263 263 261 261 260 259 258 259 259 258 259
275 272 270 271 272 273 272 271 272 275 276 274 272 272 271 269 267 268 268 269 268 269 270 270 270 272 272 272 271 270 270 269 268 267 268 269 270 271 268 264 262 261 259 257 257 258 257 255 257
275 273 271 272 273 273 273 272 274 276 274 276 272 269 270 271 269 268 267 267 269 271 271 271 272 273 272 271 271 272 272 272 272 272 271 271 271 268 265 264 263 262 261 259 257 256 257 257 256
271 271 272 272 273 275 275 274 277 274 277 277 274 270 268 267 266 268 268 268 268 267 267 269 270 272 273 274 272 271 270 269 267 266 266 267 267 266 266 265 264 264 263 263 263 260 256 253 251
272 273 274 272 272 272 272 276 274 276 278 277 273 270 269 269 268 267 268 269 269 269 271 271 270 270 269 268 268 267 264 264 265 265 266 266 266 267 268 269 272 275 276 275 274 269 262 261 258
271 272 271 272 272 271 269 272 271 274 275 275 273 272 270 270 267 268 267 268 271 274 274 274 272 271 269 269 267 266 267 269 270 270 268 267 267 266 267 268 271 272 273 273 273 271 272 271 267
274 274 274 276 274 272 272 273 271 273 277 279 278 274 270 269 267 268 268 267 269 274 276 275 273 272 271 269 268 268 269 272 272 273 274 273 272 272 273 274 275 276 277 277 277 276 275 274 273
278 277 278 281 280 276 278 274 273 277 279 281 278 274 275 269 267 266 267 269 273 274 275 276 275 273 271 271 270 270 271 272 273 274 275 275 275 275 275 276 276 274 273 273 272 271 270 271 271
278 276 276 275 276 276 278 280 276 279 283 285 280 275 270 266 268 267 269 273 275 276 279 279 274 273 273 272 273 274 275 275 275 276 276 275 274 274 273 273 272 272 273 274 274 274 273 272 268
280 277 276 276 275 275 280 283 279 281 284 285 284 278 275 275 273 271 268 268 273 275 274 275 274 273 273 274 274 274 274 274 274 274 273 273 272 272 272 271 270 271 271 272 273 274 272 270 269
276 276 277 279 281 281 281 282 279 281 283 285 280 280 280 280 281 279 274 271 272 273 274 270 270 269 270 270 271 272 273 273 272 272 272 272 272 272 272 271 272 273 274 275 275 273 271 269 266
277 278 278 276 275 276 278 283 284 288 294 285 278 278 279 279 277 275 274 272 270 273 272 272 273 273 274 275 275 275 274 274 274 274 273 273 273 272 272 273 274 276 277 276 276 275 272 271 271
281 280 279 278 276 277 279 279 280 289 294 291 286 282 279 278 279 278 275 273 273 272 270 272 272 273 273 274 275 275 275 275 274 273 273 273 273 273 273 275 276 278 278 277 276 275 277 279 280
282 282 283 281 280 278 279 278 279 288 289 291 291 290 288 283 282 282 277 274 274 273 273 274 274 272 273 274 275 277 277 275 273 273 273 273 273 274 276 277 279 279 278 277 276 278 280 282 282
280 280 280 283 283 283 284 281 286 290 288 289 289 288 285 282 278 274 270 271 273 272 271 271 272 272 274 275 277 276 275 273 273 273 273 274 275 276 278 279 279 278 277 277 279 280 283 284 284
280 279 280 281 280 279 281 284 286 285 286 287 289 285 281 278 275 273 270 270 271 271 276 278 279 279 279 280 279 276 273 272 273 274 275 275 276 278 279 279 279 278 279 281 283 286 288 288 288
278 279 282 281 282 280 283 284 283 282 283 285 282 282 276 272 270 270 272 272 273 275 277 278 280 282 283 283 282 278 275 274 274 275 275 276 278 279 280 280 280 282 284 286 289 290 291 291 287
281 280 277 279 279 287 288 285 283 281 280 283 283 278 275 273 273 275 278 280 280 279 278 276 277 279 280 280 279 277 276 276 274 274 276 278 279 280 281 282 285 287 289 291 292 293 291 284 277
273 266 266 274 273 269 274 286 282 281 279 282 282 280 280 279 278 280 283 285 284 280 277 276 278 279 277 277 279 278 278 277 276 276 277 279 281 283 285 287 290 291 292 293 293 288 279 277 278